loading
|

DELTA 1 DEB, 21317

Orbit data source: Space-Track

DELTA 1 DEB, 21317 is space debris in LEO originally from a launch on Thu, 12 Jun 1975 UTC launched from the Air Force Western Test Range (AFWTR). Debris objects in space refer to the collection of defunct objects orbiting the Earth. Examples of debris include non-operational satellites, rocket bodies, and fragments generated from explosions, collisions, or faulty payload assembly.

Loading next visibility...
Loading greatness...
DELTA 1 DEB details
Identifier
21317, 1975-052AK
Orbit
LEO
Last TLE update1 day ago
Origin
Flag of USGSFC (US)
ManufacturerUnknown
Mission statusUnknown
MissionUnknown
Bus & MotorUnknown
MassUnknown
Launch date (UTC)
1975-06-12 (49 years ago)
Launch vehicleUnknown
Launch site
Air Force Western Test Range (AFWTR)
Object type
Payload
Rocket body
Debris
Radar Cross SectionSmall (<0.1 m²)

Expand to show TLE details & history

TLE from 1 day ago
0 DELTA 1 DEB
1 21317U 75052AK  24260.48943519  .00004159  00000-0  72179-2 0  9997
2 21317 100.0938 192.8370 0223033  53.3708  13.4858 13.35158250595771
Epoch: 2024-09-16T11:44Z
Definitive object data (Epoch: 2024-09-16T11:44:47.2Z)
Latitude65.50708°
Longitude-2.15138°
Altitude975.982 km
Speed7.449 km/s
True Right ascension11h 19m 51s
True Declination65° 22' 51"
Sunlit
Object was in daylight at TLE epoch
Predictive object data (real-time)
Latitude-76.71654°
Longitude70.78514°
Altitude1,262.652 km
Speed7.171 km/s
Apparent Right ascension03h 34m 58s
Apparent Declination-74° 38' 60"
Sunlit
Object is in daylight
Predictive observer data (real-time)
Local Sidereal Time15:48:05
Azimuth178.479° S
Elevation-55.233°
Doppler factor1
Orbital elements
Apogee1,292.048 km
Perigee957.371 km
Semi-major axis7,502.846 km
Eccentricity0.0223033
Inclination100.0938°
RAAN192.837°
Arg. of periapsis53.3708°
True anomaly14.09839°
Mean anomaly13.4858°
Eccentric anomaly13.79041°
Mean motion3.33967 °/min
BSTAR0.0072179
Period107.79 mins
No data available

DELTA 1 DEB Visibility forecast

Observer location: 39.9160978°, -105.1181434

DELTA 1 DEB is not visible in the next 10 days
Span
Click to sort rows by Start time (UTC) header in descending order
Start Az.
Max El. time (UTC)
Max El. Az.
Max El.
End time (UTC)
End Az.